Year,Month,Day,Hour,Minute,Value (Times are PST for windspeed in km/hr)
2010,10,24,00,00,18.80
2010,10,24,00,01,12.60
2010,10,24,00,02,21.90
2010,10,24,00,03,21.00
2010,10,24,00,04,33.60
2010,10,24,00,05,28.50
2010,10,24,00,06,32.30
2010,10,24,00,07,19.40
2010,10,24,00,08,28.20
2010,10,24,00,09,28.90
2010,10,24,00,10,28.10
2010,10,24,00,11,26.00
2010,10,24,00,12,27.70
2010,10,24,00,13,31.20
2010,10,24,00,14,33.40
2010,10,24,00,15,22.50
2010,10,24,00,16,24.10
2010,10,24,00,17,30.70
2010,10,24,00,18,27.00
2010,10,24,00,19,35.40
2010,10,24,00,20,35.90
2010,10,24,00,21,30.60
2010,10,24,00,22,24.90
2010,10,24,00,23,39.90
2010,10,24,00,24,28.00
2010,10,24,00,25,30.50
2010,10,24,00,26,26.20
2010,10,24,00,27,26.40
2010,10,24,00,28,27.30
2010,10,24,00,29,34.40
2010,10,24,00,30,21.60
2010,10,24,00,31,25.30
2010,10,24,00,32,34.40
2010,10,24,00,33,36.40
2010,10,24,00,34,32.10
2010,10,24,00,35,24.10
2010,10,24,00,36,23.50
2010,10,24,00,37,35.20
2010,10,24,00,38,38.90
2010,10,24,00,39,41.80
2010,10,24,00,40,34.80
2010,10,24,00,41,32.20
2010,10,24,00,42,28.80
2010,10,24,00,43,29.40
2010,10,24,00,44,19.60
2010,10,24,00,45,33.30
2010,10,24,00,46,30.10
2010,10,24,00,47,33.20
2010,10,24,00,48,26.60
2010,10,24,00,49,30.70
2010,10,24,00,50,31.90
2010,10,24,00,51,31.90
2010,10,24,00,52,29.90
2010,10,24,00,53,31.10
2010,10,24,00,54,17.90
2010,10,24,00,55,20.50
2010,10,24,00,56,18.30
2010,10,24,00,57,23.30
2010,10,24,00,58,21.70
2010,10,24,00,59,23.40
2010,10,24,01,00,28.60
2010,10,24,01,01,23.90
2010,10,24,01,02,13.00
2010,10,24,01,03,19.80
2010,10,24,01,04,23.50
2010,10,24,01,05,27.30
2010,10,24,01,06,20.30
2010,10,24,01,07,22.10
2010,10,24,01,08,25.20
2010,10,24,01,09,32.30
2010,10,24,01,10,23.50
2010,10,24,01,11,17.60
2010,10,24,01,12,18.00
2010,10,24,01,13,24.90
2010,10,24,01,14,25.50
2010,10,24,01,15,22.40
2010,10,24,01,16,29.00
2010,10,24,01,17,29.60
2010,10,24,01,18,29.50
2010,10,24,01,19,30.50
2010,10,24,01,20,21.30
2010,10,24,01,21,19.10
2010,10,24,01,22,36.10
2010,10,24,01,23,27.20
2010,10,24,01,24,44.30
2010,10,24,01,25,17.30
2010,10,24,01,26,11.90
2010,10,24,01,27,18.60
2010,10,24,01,28,27.70
2010,10,24,01,29,14.50
2010,10,24,01,30,24.50
2010,10,24,01,31,19.40
2010,10,24,01,32,16.70
2010,10,24,01,33,14.70
2010,10,24,01,34,15.40
2010,10,24,01,35,22.50
2010,10,24,01,36,28.40
2010,10,24,01,37,14.40
2010,10,24,01,38,20.80
2010,10,24,01,39,25.20
2010,10,24,01,40,24.60
2010,10,24,01,41,13.40
2010,10,24,01,42,27.90
2010,10,24,01,43,29.40
2010,10,24,01,44,19.60
2010,10,24,01,45,23.40
2010,10,24,01,46,30.30
2010,10,24,01,47,26.70
2010,10,24,01,48,16.30
2010,10,24,01,49,31.00
2010,10,24,01,50,23.60
2010,10,24,01,51,20.00
2010,10,24,01,52,27.60
2010,10,24,01,53,19.50
2010,10,24,01,54,17.70
2010,10,24,01,55,17.20
2010,10,24,01,56,21.00
2010,10,24,01,57,15.80
2010,10,24,01,58,16.80
2010,10,24,01,59,18.20
2010,10,24,02,00,24.90
2010,10,24,02,01,24.30
2010,10,24,02,02,19.60
2010,10,24,02,03,20.00
2010,10,24,02,04,15.20
2010,10,24,02,05,15.40
2010,10,24,02,06,17.60
2010,10,24,02,07,16.60
2010,10,24,02,08,25.70
2010,10,24,02,09,24.30
2010,10,24,02,10,22.70
2010,10,24,02,11,21.80
2010,10,24,02,12,20.00
2010,10,24,02,13,25.10
2010,10,24,02,14,24.00
2010,10,24,02,15,19.20
2010,10,24,02,16,18.80
2010,10,24,02,17,21.00
2010,10,24,02,18,20.90
2010,10,24,02,19,20.80
2010,10,24,02,20,22.20
2010,10,24,02,21,16.80
2010,10,24,02,22,19.20
2010,10,24,02,23,14.60
2010,10,24,02,24,13.70
2010,10,24,02,25,21.20
2010,10,24,02,26,21.70
2010,10,24,02,27,23.80
2010,10,24,02,28,11.80
2010,10,24,02,29,24.80
2010,10,24,02,30,25.20
2010,10,24,02,31,20.20
2010,10,24,02,32,21.00
2010,10,24,02,33,21.50
2010,10,24,02,34,13.20
2010,10,24,02,35,25.90
2010,10,24,02,36,14.20
2010,10,24,02,37,21.00
2010,10,24,02,38,17.60
2010,10,24,02,39,20.90
2010,10,24,02,40,15.30
2010,10,24,02,41,23.40
2010,10,24,02,42,24.90
2010,10,24,02,43,19.70
2010,10,24,02,44,20.00
2010,10,24,02,45,19.40
2010,10,24,02,46,21.30
2010,10,24,02,47,19.00
2010,10,24,02,48,13.70
2010,10,24,02,49,19.20
2010,10,24,02,50,22.00
2010,10,24,02,51,22.80
2010,10,24,02,52,19.00
2010,10,24,02,53,22.10
2010,10,24,02,54,17.30
2010,10,24,02,55,16.80
2010,10,24,02,56,21.40
2010,10,24,02,57,22.40
2010,10,24,02,58,23.60
2010,10,24,02,59,20.20
2010,10,24,03,00,20.30
2010,10,24,03,01,13.90
2010,10,24,03,02,16.30
2010,10,24,03,03,16.30
2010,10,24,03,04,21.10
2010,10,24,03,05,17.20
2010,10,24,03,06,15.50
2010,10,24,03,07,15.20
2010,10,24,03,08,20.60
2010,10,24,03,09,13.40
2010,10,24,03,10,26.00
2010,10,24,03,11,18.00
2010,10,24,03,12,16.70
2010,10,24,03,13,16.70
2010,10,24,03,14,21.60
2010,10,24,03,15,20.70
2010,10,24,03,16,16.20
2010,10,24,03,17,12.20
2010,10,24,03,18,8.50
2010,10,24,03,19,12.60
2010,10,24,03,20,20.80
2010,10,24,03,21,13.90
2010,10,24,03,22,17.50
2010,10,24,03,23,18.70
2010,10,24,03,24,14.90
2010,10,24,03,25,19.70
2010,10,24,03,26,20.70
2010,10,24,03,27,18.80
2010,10,24,03,28,20.20
2010,10,24,03,29,10.90
2010,10,24,03,30,17.40
2010,10,24,03,31,19.20
2010,10,24,03,32,13.90
2010,10,24,03,33,16.70
2010,10,24,03,34,15.00
2010,10,24,03,35,11.10
2010,10,24,03,36,12.50
2010,10,24,03,37,14.10
2010,10,24,03,38,10.90
2010,10,24,03,39,9.40
2010,10,24,03,40,13.80
2010,10,24,03,41,14.10
2010,10,24,03,42,19.00
2010,10,24,03,43,22.20
2010,10,24,03,44,21.80
2010,10,24,03,45,12.80
2010,10,24,03,46,9.80
2010,10,24,03,47,9.10
2010,10,24,03,48,7.60
2010,10,24,03,49,7.60
2010,10,24,03,50,8.90
2010,10,24,03,51,6.80
2010,10,24,03,52,13.30
2010,10,24,03,53,17.90
2010,10,24,03,54,18.80
2010,10,24,03,55,12.80
2010,10,24,03,56,6.80
2010,10,24,03,57,8.30
2010,10,24,03,58,13.80
2010,10,24,03,59,19.70
2010,10,24,04,00,18.00
2010,10,24,04,01,19.80
2010,10,24,04,02,24.10
2010,10,24,04,03,17.50
2010,10,24,04,04,22.00
2010,10,24,04,05,16.30
2010,10,24,04,06,16.00
2010,10,24,04,07,17.90
2010,10,24,04,08,14.60
2010,10,24,04,09,9.70
2010,10,24,04,10,15.00
2010,10,24,04,11,10.60
2010,10,24,04,12,13.40
2010,10,24,04,13,16.90
2010,10,24,04,14,11.80
2010,10,24,04,15,15.90
2010,10,24,04,16,7.70
2010,10,24,04,17,10.70
2010,10,24,04,18,11.70
2010,10,24,04,19,19.30
2010,10,24,04,20,15.10
2010,10,24,04,21,12.60
2010,10,24,04,22,16.90
2010,10,24,04,23,16.00
2010,10,24,04,24,19.80
2010,10,24,04,25,13.20
2010,10,24,04,26,8.80
2010,10,24,04,27,16.20
2010,10,24,04,28,12.60
2010,10,24,04,29,11.10
2010,10,24,04,30,12.80
2010,10,24,04,31,15.80
2010,10,24,04,32,11.90
2010,10,24,04,33,13.00
2010,10,24,04,34,5.30
2010,10,24,04,35,13.80
2010,10,24,04,36,9.00
2010,10,24,04,37,6.20
2010,10,24,04,38,8.50
2010,10,24,04,39,7.70
2010,10,24,04,40,10.50
2010,10,24,04,41,7.00
2010,10,24,04,42,9.60
2010,10,24,04,43,9.20
2010,10,24,04,44,11.40
2010,10,24,04,45,10.60
2010,10,24,04,46,5.50
2010,10,24,04,47,7.20
2010,10,24,04,48,11.00
2010,10,24,04,49,11.70
2010,10,24,04,50,10.20
2010,10,24,04,51,11.00
2010,10,24,04,52,7.50
2010,10,24,04,53,3.80
2010,10,24,04,54,13.00
2010,10,24,04,55,13.10
2010,10,24,04,56,9.10
2010,10,24,04,57,10.70
2010,10,24,04,58,12.10
2010,10,24,04,59,12.20
2010,10,24,05,00,12.80
2010,10,24,05,01,13.50
2010,10,24,05,02,11.50
2010,10,24,05,03,14.10
2010,10,24,05,04,9.40
2010,10,24,05,05,5.80
2010,10,24,05,06,8.90
2010,10,24,05,07,7.90
2010,10,24,05,08,7.60
2010,10,24,05,09,10.50
2010,10,24,05,10,3.70
2010,10,24,05,11,4.70
2010,10,24,05,12,6.80
2010,10,24,05,13,5.10
2010,10,24,05,14,9.30
2010,10,24,05,15,7.40
2010,10,24,05,16,6.60
2010,10,24,05,17,9.50
2010,10,24,05,18,7.10
2010,10,24,05,19,6.10
2010,10,24,05,20,5.10
2010,10,24,05,21,4.00
2010,10,24,05,22,1.90
2010,10,24,05,23,1.20
2010,10,24,05,24,1.40
2010,10,24,05,25,2.00
2010,10,24,05,26,4.10
2010,10,24,05,27,3.50
2010,10,24,05,28,5.40
2010,10,24,05,29,2.70
2010,10,24,05,30,0.70
2010,10,24,05,31,1.20
2010,10,24,05,32,0.40
2010,10,24,05,33,0.20
2010,10,24,05,34,3.00
2010,10,24,05,35,1.60
2010,10,24,05,36,2.00
2010,10,24,05,37,1.90
2010,10,24,05,38,0.60
2010,10,24,05,39,0.10
2010,10,24,05,40,1.50
2010,10,24,05,41,1.40
2010,10,24,05,42,0.20
2010,10,24,05,43,0.80
2010,10,24,05,44,0.10
2010,10,24,05,45,0.50
2010,10,24,05,46,0.50
2010,10,24,05,47,0.20
2010,10,24,05,48,0.00
2010,10,24,05,49,1.00
2010,10,24,05,50,0.50
2010,10,24,05,51,0.60
2010,10,24,05,52,0.10
2010,10,24,05,53,0.00
2010,10,24,05,54,0.00
2010,10,24,05,55,0.20
2010,10,24,05,56,0.30
2010,10,24,05,57,0.00
2010,10,24,05,58,0.00
2010,10,24,05,59,0.00
2010,10,24,06,00,0.00
2010,10,24,06,01,0.00
2010,10,24,06,02,0.00
2010,10,24,06,03,0.00
2010,10,24,06,04,0.60
2010,10,24,06,05,1.40
2010,10,24,06,06,0.50
2010,10,24,06,07,0.00
2010,10,24,06,08,0.10
2010,10,24,06,09,0.10
2010,10,24,06,10,0.20
2010,10,24,06,11,0.00
2010,10,24,06,12,0.00
2010,10,24,06,13,0.00
2010,10,24,06,14,0.00
2010,10,24,06,15,0.00
2010,10,24,06,16,0.00
2010,10,24,06,17,0.20
2010,10,24,06,18,0.00
2010,10,24,06,19,0.00
2010,10,24,06,20,0.10
2010,10,24,06,21,0.40
2010,10,24,06,22,0.00
2010,10,24,06,23,0.00
2010,10,24,06,24,0.00
2010,10,24,06,25,0.10
2010,10,24,06,26,0.00
2010,10,24,06,27,0.60
2010,10,24,06,28,1.00
2010,10,24,06,29,0.00
2010,10,24,06,30,0.00
2010,10,24,06,31,0.00
2010,10,24,06,32,0.00
2010,10,24,06,33,0.20
2010,10,24,06,34,0.50
2010,10,24,06,35,0.00
2010,10,24,06,36,0.20
2010,10,24,06,37,1.00
2010,10,24,06,38,0.00
2010,10,24,06,39,0.10
2010,10,24,06,40,0.30
2010,10,24,06,41,0.30
2010,10,24,06,42,0.50
2010,10,24,06,43,0.40
2010,10,24,06,44,0.20
2010,10,24,06,45,0.00
2010,10,24,06,46,0.40
2010,10,24,06,47,0.00
2010,10,24,06,48,0.10
2010,10,24,06,49,0.00
2010,10,24,06,50,0.90
2010,10,24,06,51,0.00
2010,10,24,06,52,0.00
2010,10,24,06,53,0.00
2010,10,24,06,54,0.00
2010,10,24,06,55,0.00
2010,10,24,06,56,0.00
2010,10,24,06,57,0.00
2010,10,24,06,58,0.00
2010,10,24,06,59,0.00
2010,10,24,07,00,0.00
2010,10,24,07,01,0.40
2010,10,24,07,02,0.00
2010,10,24,07,03,0.00
2010,10,24,07,04,0.00
2010,10,24,07,05,0.00
2010,10,24,07,06,0.20
2010,10,24,07,07,0.00
2010,10,24,07,08,0.00
2010,10,24,07,09,0.90
2010,10,24,07,10,1.10
2010,10,24,07,11,1.00
2010,10,24,07,12,0.20
2010,10,24,07,13,0.00
2010,10,24,07,14,0.80
2010,10,24,07,15,0.00
2010,10,24,07,16,0.00
2010,10,24,07,17,0.00
2010,10,24,07,18,0.00
2010,10,24,07,19,0.00
2010,10,24,07,20,0.00
2010,10,24,07,21,0.20
2010,10,24,07,22,0.40
2010,10,24,07,23,0.00
2010,10,24,07,24,0.00
2010,10,24,07,25,0.00
2010,10,24,07,26,0.00
2010,10,24,07,27,0.00
2010,10,24,07,28,0.20
2010,10,24,07,29,0.00
2010,10,24,07,30,0.00
2010,10,24,07,31,0.00
2010,10,24,07,32,0.00
2010,10,24,07,33,0.00
2010,10,24,07,34,0.00
2010,10,24,07,35,0.10
2010,10,24,07,36,0.00
2010,10,24,07,37,0.00
2010,10,24,07,38,0.00
2010,10,24,07,39,0.00
2010,10,24,07,40,0.00
2010,10,24,07,41,0.00
2010,10,24,07,42,0.00
2010,10,24,07,43,0.00
2010,10,24,07,44,0.00
2010,10,24,07,45,0.00
2010,10,24,07,46,2.00
2010,10,24,07,47,3.00
2010,10,24,07,48,3.10
2010,10,24,07,49,4.00
2010,10,24,07,50,3.00
2010,10,24,07,51,1.90
2010,10,24,07,52,3.40
2010,10,24,07,53,0.80
2010,10,24,07,54,1.60
2010,10,24,07,55,0.20
2010,10,24,07,56,0.10
2010,10,24,07,57,1.60
2010,10,24,07,58,3.00
2010,10,24,07,59,1.00
2010,10,24,08,00,0.10
2010,10,24,08,01,0.10
2010,10,24,08,02,2.00
2010,10,24,08,03,1.30
2010,10,24,08,04,0.20
2010,10,24,08,05,0.00
2010,10,24,08,06,0.00
2010,10,24,08,07,1.20
2010,10,24,08,08,2.30
2010,10,24,08,09,0.80
2010,10,24,08,10,0.10
2010,10,24,08,11,0.00
2010,10,24,08,12,0.00
2010,10,24,08,13,0.00
2010,10,24,08,14,0.00
2010,10,24,08,15,0.00
2010,10,24,08,16,0.00
2010,10,24,08,17,0.00
2010,10,24,08,18,0.00
2010,10,24,08,19,0.00
2010,10,24,08,20,0.00
2010,10,24,08,21,1.30
2010,10,24,08,22,0.00
2010,10,24,08,23,0.00
2010,10,24,08,24,0.20
2010,10,24,08,25,2.10
2010,10,24,08,26,0.70
2010,10,24,08,27,2.60
2010,10,24,08,28,0.90
2010,10,24,08,29,0.10
2010,10,24,08,30,0.00
2010,10,24,08,31,0.00
2010,10,24,08,32,0.00
2010,10,24,08,33,2.50
2010,10,24,08,34,1.80
2010,10,24,08,35,0.60
2010,10,24,08,36,0.10
2010,10,24,08,37,0.60
2010,10,24,08,38,1.10
2010,10,24,08,39,0.90
2010,10,24,08,40,0.40
2010,10,24,08,41,1.50
2010,10,24,08,42,1.90
2010,10,24,08,43,0.50
2010,10,24,08,44,0.30
2010,10,24,08,45,0.00
2010,10,24,08,46,1.70
2010,10,24,08,47,0.90
2010,10,24,08,48,0.00
2010,10,24,08,49,1.80
2010,10,24,08,50,1.50
2010,10,24,08,51,1.40
2010,10,24,08,52,0.00
2010,10,24,08,53,0.80
2010,10,24,08,54,1.60
2010,10,24,08,55,4.70
2010,10,24,08,56,0.70
2010,10,24,08,57,3.80
2010,10,24,08,58,0.30
2010,10,24,08,59,0.00
2010,10,24,09,00,0.00
2010,10,24,09,01,0.00
2010,10,24,09,02,0.00
2010,10,24,09,03,0.00
2010,10,24,09,04,0.20
2010,10,24,09,05,0.30
2010,10,24,09,06,0.00
2010,10,24,09,07,0.60
2010,10,24,09,08,0.20
2010,10,24,09,09,1.80
2010,10,24,09,10,3.60
2010,10,24,09,11,2.60
2010,10,24,09,12,1.20
2010,10,24,09,13,2.20
2010,10,24,09,14,2.20
2010,10,24,09,15,2.50
2010,10,24,09,16,0.70
2010,10,24,09,17,1.80
2010,10,24,09,18,1.90
2010,10,24,09,19,0.90
2010,10,24,09,20,0.00
2010,10,24,09,21,0.20
2010,10,24,09,22,0.30
2010,10,24,09,23,1.20
2010,10,24,09,24,3.30
2010,10,24,09,25,2.80
2010,10,24,09,26,4.10
2010,10,24,09,27,3.10
2010,10,24,09,28,0.60
2010,10,24,09,29,1.40
2010,10,24,09,30,1.70
2010,10,24,09,31,2.50
2010,10,24,09,32,2.90
2010,10,24,09,33,2.50
2010,10,24,09,34,1.90
2010,10,24,09,35,2.00
2010,10,24,09,36,1.50
2010,10,24,09,37,1.80
2010,10,24,09,38,1.40
2010,10,24,09,39,0.10
2010,10,24,09,40,1.20
2010,10,24,09,41,0.30
2010,10,24,09,42,0.00
2010,10,24,09,43,0.00
2010,10,24,09,44,0.20
2010,10,24,09,45,2.70
2010,10,24,09,46,3.90
2010,10,24,09,47,0.50
2010,10,24,09,48,0.10
2010,10,24,09,49,0.90
2010,10,24,09,50,0.00
2010,10,24,09,51,0.00
2010,10,24,09,52,0.00
2010,10,24,09,53,0.00
2010,10,24,09,54,0.10
2010,10,24,09,55,0.00
2010,10,24,09,56,0.00
2010,10,24,09,57,0.00
2010,10,24,09,58,0.00
2010,10,24,09,59,0.00
2010,10,24,10,00,0.00
2010,10,24,10,01,0.00
2010,10,24,10,02,0.00
2010,10,24,10,03,0.00
2010,10,24,10,04,0.00
2010,10,24,10,05,0.00
2010,10,24,10,06,0.00
2010,10,24,10,07,0.00
2010,10,24,10,08,0.00
2010,10,24,10,09,0.00
2010,10,24,10,10,0.00
2010,10,24,10,11,0.00
2010,10,24,10,12,0.30
2010,10,24,10,13,0.80
2010,10,24,10,14,0.10
2010,10,24,10,15,0.00
2010,10,24,10,16,0.00
2010,10,24,10,17,0.00
2010,10,24,10,18,0.00
2010,10,24,10,19,0.10
2010,10,24,10,20,0.00
2010,10,24,10,21,0.30
2010,10,24,10,22,0.10
2010,10,24,10,23,0.10
2010,10,24,10,24,0.00
2010,10,24,10,25,0.10
2010,10,24,10,26,0.20
2010,10,24,10,27,0.30
2010,10,24,10,28,0.00
2010,10,24,10,29,0.10
2010,10,24,10,30,0.10
2010,10,24,10,31,0.00
2010,10,24,10,32,0.00
2010,10,24,10,33,0.60
2010,10,24,10,34,0.60
2010,10,24,10,35,0.00
2010,10,24,10,36,0.40
2010,10,24,10,37,1.90
2010,10,24,10,38,1.50
2010,10,24,10,39,0.20
2010,10,24,10,40,0.10
2010,10,24,10,41,0.10
2010,10,24,10,42,1.40
2010,10,24,10,43,3.90
2010,10,24,10,44,1.70
2010,10,24,10,45,0.30
2010,10,24,10,46,0.40
2010,10,24,10,47,0.60
2010,10,24,10,48,0.60
2010,10,24,10,49,3.10
2010,10,24,10,50,1.50
2010,10,24,10,51,2.50
2010,10,24,10,52,5.00
2010,10,24,10,53,6.10
2010,10,24,10,54,3.10
2010,10,24,10,55,2.00
2010,10,24,10,56,3.90
2010,10,24,10,57,2.40
2010,10,24,10,58,0.60
2010,10,24,10,59,2.40
2010,10,24,11,00,2.60
2010,10,24,11,01,1.20
2010,10,24,11,02,0.80
2010,10,24,11,03,1.90
2010,10,24,11,04,2.90
2010,10,24,11,05,0.40
2010,10,24,11,06,0.50
2010,10,24,11,07,0.60
2010,10,24,11,08,2.40
2010,10,24,11,09,5.00
2010,10,24,11,10,3.50
2010,10,24,11,11,3.10
2010,10,24,11,12,4.30
2010,10,24,11,13,3.90
2010,10,24,11,14,1.20
2010,10,24,11,15,2.30
2010,10,24,11,16,2.80
2010,10,24,11,17,4.30
2010,10,24,11,18,1.80
2010,10,24,11,19,0.00
2010,10,24,11,20,3.90
2010,10,24,11,21,1.40
2010,10,24,11,22,1.90
2010,10,24,11,23,5.10
2010,10,24,11,24,2.80
2010,10,24,11,25,7.60
2010,10,24,11,26,8.30
2010,10,24,11,27,9.00
2010,10,24,11,28,9.70
2010,10,24,11,29,6.90
2010,10,24,11,30,5.90
2010,10,24,11,31,5.30
2010,10,24,11,32,4.00
2010,10,24,11,33,2.00
2010,10,24,11,34,7.70
2010,10,24,11,35,4.80
2010,10,24,11,36,5.00
2010,10,24,11,37,4.80
2010,10,24,11,38,4.70
2010,10,24,11,39,6.80
2010,10,24,11,40,9.40
2010,10,24,11,41,5.30
2010,10,24,11,42,5.20
2010,10,24,11,43,5.10
2010,10,24,11,44,6.30
2010,10,24,11,45,5.80
2010,10,24,11,46,5.80
2010,10,24,11,47,9.10
2010,10,24,11,48,8.80
2010,10,24,11,49,5.70
2010,10,24,11,50,4.10
2010,10,24,11,51,3.90
2010,10,24,11,52,7.60
2010,10,24,11,53,6.10
2010,10,24,11,54,4.50
2010,10,24,11,55,6.00
2010,10,24,11,56,3.20
2010,10,24,11,57,6.50
2010,10,24,11,58,10.90
2010,10,24,11,59,4.20
2010,10,24,12,00,3.30
2010,10,24,12,01,5.70
2010,10,24,12,02,4.80
2010,10,24,12,03,3.30
2010,10,24,12,04,2.50
2010,10,24,12,05,5.10
2010,10,24,12,06,7.40
2010,10,24,12,07,9.80
2010,10,24,12,08,6.90
2010,10,24,12,09,5.20
2010,10,24,12,10,7.90
2010,10,24,12,11,10.70
2010,10,24,12,12,8.00
2010,10,24,12,13,7.60
2010,10,24,12,14,7.00
2010,10,24,12,15,2.20
2010,10,24,12,16,3.80
2010,10,24,12,17,2.40
2010,10,24,12,18,1.80
2010,10,24,12,19,2.60
2010,10,24,12,20,1.80
2010,10,24,12,21,1.60
2010,10,24,12,22,3.00
2010,10,24,12,23,2.80
2010,10,24,12,24,3.10
2010,10,24,12,25,2.30
2010,10,24,12,26,1.40
2010,10,24,12,27,6.00
2010,10,24,12,28,6.70
2010,10,24,12,29,4.30
2010,10,24,12,30,4.10
2010,10,24,12,31,4.70
2010,10,24,12,32,3.30
2010,10,24,12,33,6.50
2010,10,24,12,34,5.20
2010,10,24,12,35,0.40
2010,10,24,12,36,4.90
2010,10,24,12,37,6.40
2010,10,24,12,38,2.50
2010,10,24,12,39,4.40
2010,10,24,12,40,3.70
2010,10,24,12,41,8.00
2010,10,24,12,42,7.70
2010,10,24,12,43,7.40
2010,10,24,12,44,4.50
2010,10,24,12,45,5.40
2010,10,24,12,46,3.10
2010,10,24,12,47,12.20
2010,10,24,12,48,7.50
2010,10,24,12,49,9.20
2010,10,24,12,50,7.50
2010,10,24,12,51,12.20
2010,10,24,12,52,6.80
2010,10,24,12,53,2.30
2010,10,24,12,54,7.30
2010,10,24,12,55,9.40
2010,10,24,12,56,12.00
2010,10,24,12,57,11.20
2010,10,24,12,58,10.60
2010,10,24,12,59,9.00
2010,10,24,13,00,9.10
2010,10,24,13,01,7.30
2010,10,24,13,02,8.30
2010,10,24,13,03,7.70
2010,10,24,13,04,9.20
2010,10,24,13,05,9.30
2010,10,24,13,06,7.20
2010,10,24,13,07,5.30
2010,10,24,13,08,7.60
2010,10,24,13,09,4.70
2010,10,24,13,10,3.30
2010,10,24,13,11,5.10
2010,10,24,13,12,7.30
2010,10,24,13,13,7.60
2010,10,24,13,14,8.00
2010,10,24,13,15,5.30
2010,10,24,13,16,8.20
2010,10,24,13,17,6.90
2010,10,24,13,18,6.60
2010,10,24,13,19,5.00
2010,10,24,13,20,7.10
2010,10,24,13,21,12.50
2010,10,24,13,22,11.80
2010,10,24,13,23,5.70
2010,10,24,13,24,8.00
2010,10,24,13,25,5.60
2010,10,24,13,26,8.00
2010,10,24,13,27,3.40
2010,10,24,13,28,3.60
2010,10,24,13,29,4.70
2010,10,24,13,30,1.10
2010,10,24,13,31,7.30
2010,10,24,13,32,4.60
2010,10,24,13,33,5.00
2010,10,24,13,34,5.60
2010,10,24,13,35,8.50
2010,10,24,13,36,6.40
2010,10,24,13,37,8.90
2010,10,24,13,38,3.70
2010,10,24,13,39,3.90
2010,10,24,13,40,7.70
2010,10,24,13,41,7.50
2010,10,24,13,42,4.40
2010,10,24,13,43,5.90
2010,10,24,13,44,3.10
2010,10,24,13,45,3.60
2010,10,24,13,46,5.00
2010,10,24,13,47,5.60
2010,10,24,13,48,3.80
2010,10,24,13,49,5.70
2010,10,24,13,50,4.60
2010,10,24,13,51,2.20
2010,10,24,13,52,2.90
2010,10,24,13,53,3.20
2010,10,24,13,54,4.70
2010,10,24,13,55,6.60
2010,10,24,13,56,6.10
2010,10,24,13,57,0.70
2010,10,24,13,58,1.20
2010,10,24,13,59,6.40
2010,10,24,14,00,3.30
2010,10,24,14,01,5.40
2010,10,24,14,02,1.50
2010,10,24,14,03,4.40
2010,10,24,14,04,6.40
2010,10,24,14,05,3.60
2010,10,24,14,06,4.50
2010,10,24,14,07,4.10
2010,10,24,14,08,5.70
2010,10,24,14,09,6.20
2010,10,24,14,10,3.20
2010,10,24,14,11,8.00
2010,10,24,14,12,9.40
2010,10,24,14,13,10.10
2010,10,24,14,14,9.70
2010,10,24,14,15,5.70
2010,10,24,14,16,9.80
2010,10,24,14,17,8.60
2010,10,24,14,18,4.20
2010,10,24,14,19,7.20
2010,10,24,14,20,9.60
2010,10,24,14,21,9.10
2010,10,24,14,22,10.20
2010,10,24,14,23,11.90
2010,10,24,14,24,7.20
2010,10,24,14,25,11.30
2010,10,24,14,26,9.30
2010,10,24,14,27,9.50
2010,10,24,14,28,13.80
2010,10,24,14,29,8.90
2010,10,24,14,30,7.70
2010,10,24,14,31,7.10
2010,10,24,14,32,8.60
2010,10,24,14,33,11.70
2010,10,24,14,34,13.80
2010,10,24,14,35,9.00
2010,10,24,14,36,6.90
2010,10,24,14,37,9.60
2010,10,24,14,38,7.20
2010,10,24,14,39,11.50
2010,10,24,14,40,8.40
2010,10,24,14,41,8.70
2010,10,24,14,42,6.90
2010,10,24,14,43,7.90
2010,10,24,14,44,7.60
2010,10,24,14,45,9.70
2010,10,24,14,46,7.50
2010,10,24,14,47,8.10
2010,10,24,14,48,11.40
2010,10,24,14,49,11.30
2010,10,24,14,50,10.50
2010,10,24,14,51,10.80
2010,10,24,14,52,13.30
2010,10,24,14,53,12.80
2010,10,24,14,54,10.20
2010,10,24,14,55,9.20
2010,10,24,14,56,8.50
2010,10,24,14,57,8.20
2010,10,24,14,58,11.70
2010,10,24,14,59,12.30
2010,10,24,15,00,8.40
2010,10,24,15,01,8.00
2010,10,24,15,02,7.00
2010,10,24,15,03,13.20
2010,10,24,15,04,10.10
2010,10,24,15,05,9.20
2010,10,24,15,06,5.20
2010,10,24,15,07,7.50
2010,10,24,15,08,7.70
2010,10,24,15,09,4.00
2010,10,24,15,10,4.90
2010,10,24,15,11,4.70
2010,10,24,15,12,8.80
2010,10,24,15,13,3.60
2010,10,24,15,14,3.00
2010,10,24,15,15,5.10
2010,10,24,15,16,4.20
2010,10,24,15,17,1.60
2010,10,24,15,18,1.50
2010,10,24,15,19,8.80
2010,10,24,15,20,5.00
2010,10,24,15,21,1.10
2010,10,24,15,22,3.70
2010,10,24,15,23,8.70
2010,10,24,15,24,5.20
2010,10,24,15,25,7.70
2010,10,24,15,26,5.30
2010,10,24,15,27,1.60
2010,10,24,15,28,1.10
2010,10,24,15,29,0.60
2010,10,24,15,30,2.20
2010,10,24,15,31,5.50
2010,10,24,15,32,3.90
2010,10,24,15,33,2.10
2010,10,24,15,34,6.50
2010,10,24,15,35,8.80
2010,10,24,15,36,9.00
2010,10,24,15,37,7.70
2010,10,24,15,38,2.70
2010,10,24,15,39,3.40
2010,10,24,15,40,3.70
2010,10,24,15,41,2.50
2010,10,24,15,42,0.20
2010,10,24,15,43,2.50
2010,10,24,15,44,3.50
2010,10,24,15,45,6.90
2010,10,24,15,46,4.10
2010,10,24,15,47,7.90
2010,10,24,15,48,9.20
2010,10,24,15,49,6.00
2010,10,24,15,50,6.40
2010,10,24,15,51,9.90
2010,10,24,15,52,12.10
2010,10,24,15,53,11.00
2010,10,24,15,54,5.10
2010,10,24,15,55,8.00
2010,10,24,15,56,7.80
2010,10,24,15,57,4.30
2010,10,24,15,58,6.90
2010,10,24,15,59,0.20
2010,10,24,16,00,0.80
2010,10,24,16,01,7.20
2010,10,24,16,02,10.60
2010,10,24,16,03,7.20
2010,10,24,16,04,1.90
2010,10,24,16,05,3.00
2010,10,24,16,06,5.00
2010,10,24,16,07,5.30
2010,10,24,16,08,8.80
2010,10,24,16,09,3.70
2010,10,24,16,10,6.30
2010,10,24,16,11,5.70
2010,10,24,16,12,8.60
2010,10,24,16,13,9.20
2010,10,24,16,14,6.40
2010,10,24,16,15,4.90
2010,10,24,16,16,10.00
2010,10,24,16,17,6.30
2010,10,24,16,18,7.50
2010,10,24,16,19,2.80
2010,10,24,16,20,7.10
2010,10,24,16,21,2.30
2010,10,24,16,22,4.30
2010,10,24,16,23,6.50
2010,10,24,16,24,8.50
2010,10,24,16,25,6.00
2010,10,24,16,26,7.30
2010,10,24,16,27,6.00
2010,10,24,16,28,2.70
2010,10,24,16,29,2.90
2010,10,24,16,30,3.90
2010,10,24,16,31,2.40
2010,10,24,16,32,2.90
2010,10,24,16,33,1.00
2010,10,24,16,34,4.40
2010,10,24,16,35,5.50
2010,10,24,16,36,1.90
2010,10,24,16,37,2.70
2010,10,24,16,38,2.70
2010,10,24,16,39,0.70
2010,10,24,16,40,0.20
2010,10,24,16,41,3.00
2010,10,24,16,42,4.80
2010,10,24,16,43,0.20
2010,10,24,16,44,1.70
2010,10,24,16,45,3.90
2010,10,24,16,46,2.20
2010,10,24,16,47,4.40
2010,10,24,16,48,3.90
2010,10,24,16,49,3.20
2010,10,24,16,50,4.00
2010,10,24,16,51,2.00
2010,10,24,16,52,2.60
2010,10,24,16,53,3.00
2010,10,24,16,54,2.20
2010,10,24,16,55,1.00
2010,10,24,16,56,1.90
2010,10,24,16,57,0.60
2010,10,24,16,58,0.40
2010,10,24,16,59,0.00
2010,10,24,17,00,0.40
2010,10,24,17,01,3.70
2010,10,24,17,02,1.30
2010,10,24,17,03,0.40
2010,10,24,17,04,0.20
2010,10,24,17,05,4.20
2010,10,24,17,06,1.50
2010,10,24,17,07,0.00
2010,10,24,17,08,1.40
2010,10,24,17,09,1.90
2010,10,24,17,10,0.80
2010,10,24,17,11,0.10
2010,10,24,17,12,0.00
2010,10,24,17,13,0.70
2010,10,24,17,14,1.20
2010,10,24,17,15,1.50
2010,10,24,17,16,2.30
2010,10,24,17,17,0.20
2010,10,24,17,18,5.50
2010,10,24,17,19,0.50
2010,10,24,17,20,0.50
2010,10,24,17,21,0.80
2010,10,24,17,22,4.60
2010,10,24,17,23,1.00
2010,10,24,17,24,2.40
2010,10,24,17,25,0.60
2010,10,24,17,26,0.00
2010,10,24,17,27,0.00
2010,10,24,17,28,0.00
2010,10,24,17,29,0.10
2010,10,24,17,30,0.00
2010,10,24,17,31,0.00
2010,10,24,17,32,0.00
2010,10,24,17,33,1.00
2010,10,24,17,34,0.00
2010,10,24,17,35,0.00
2010,10,24,17,36,0.00
2010,10,24,17,37,0.00
2010,10,24,17,38,0.00
2010,10,24,17,39,0.00
2010,10,24,17,40,0.00
2010,10,24,17,41,0.00
2010,10,24,17,42,0.00
2010,10,24,17,43,0.10
2010,10,24,17,44,0.00
2010,10,24,17,45,0.00
2010,10,24,17,46,0.10
2010,10,24,17,47,0.10
2010,10,24,17,48,0.10
2010,10,24,17,49,0.00
2010,10,24,17,50,0.00
2010,10,24,17,51,0.00
2010,10,24,17,52,0.60